FW9229 Weather Reports


time (UTC)temp
C
wind
direction
speed
KPH
gust
KPH
rain 1hr
cm
rain 24hr
cm
rain mn
cm
humidity
%
barometer
mb
20260903070038 27 0 0.0 3.2 0.00 0.03 0.00 78 1012.6
20260903065520 27 0 0.0 1.6 0.00 0.03 0.00 79 1012.6
20260903065017 26 0 0.0 6.4 0.00 0.03 0.00 79 1012.6
20260903064537 26 0 0.0 6.4 0.00 0.03 0.00 79 1012.7
20260903064021 26 0 0.0 3.2 0.00 0.03 0.00 79 1012.7
20260903063519 26 0 0.0 3.2 0.00 0.03 0.00 79 1012.8
20260903063034 26 144 0.0 3.2 0.00 0.03 0.00 79 1012.7
20260903062521 26 0 0.0 8.0 0.00 0.03 0.00 78 1012.7
20260903062023 26 0 0.0 8.0 0.00 0.03 0.00 78 1012.7
20260903061535 26 93 0.0 8.0 0.00 0.03 0.00 78 1012.5
20260903061026 27 130 3.2 11.3 0.00 0.03 0.00 77 1012.6
20260903060519 27 112 3.2 11.3 0.00 0.03 0.00 77 1012.8
20260903060038 27 164 4.8 14.5 0.00 0.03 0.00 76 1012.8
20260903055520 27 123 3.2 14.5 0.00 0.03 0.00 75 1013.0
20260903055022 27 113 4.8 12.9 0.00 0.03 0.00 75 1012.9
20260903054537 27 135 1.6 12.9 0.00 0.03 0.00 74 1012.9
20260903054021 27 167 1.6 12.9 0.00 0.03 0.00 74 1012.9
20260903053518 27 101 4.8 12.9 0.00 0.03 0.00 74 1013.0
20260903053037 27 129 4.8 12.9 0.00 0.03 0.00 73 1013.1
20260903052519 27 128 1.6 12.9 0.00 0.03 0.00 73 1013.0
20260903052020 27 98 3.2 16.1 0.00 0.03 0.00 73 1013.2
20260903051557 27 141 4.8 16.1 0.00 0.03 0.00 73 1013.3
20260903051022 27 117 4.8 14.5 0.00 0.03 0.00 72 1013.2
20260903050519 27 121 4.8 12.9 0.00 0.03 0.00 72 1013.4
20260903050039 27 96 4.8 14.5 0.00 0.03 0.00 72 1013.3
20260903045518 27 99 4.8 14.5 0.00 0.03 0.03 71 1013.4
20260903045024 28 102 4.8 20.9 0.00 0.03 0.03 71 1013.5
20260903044542 28 114 4.8 20.9 0.00 0.03 0.03 70 1013.4
20260903044018 28 116 4.8 14.5 0.00 0.03 0.03 70 1013.3
20260903043519 28 83 3.2 14.5 0.00 0.03 0.03 69 1013.2
20260903043131 28 118 4.8 16.1 0.00 0.03 0.03 69 1013.2
20260903042519 28 120 6.4 16.1 0.00 0.03 0.03 69 1013.3
20260903042017 28 80 3.2 14.5 0.00 0.03 0.03 68 1013.4
20260903041538 28 107 6.4 12.9 0.00 0.03 0.03 68 1013.4
20260903041019 28 127 3.2 12.9 0.00 0.03 0.03 68 1013.5
20260903040519 28 114 4.8 12.9 0.00 0.03 0.03 68 1013.4
20260903040038 28 141 3.2 14.5 0.00 0.03 0.03 67 1013.5
20260903035518 28 127 4.8 14.5 0.00 0.03 0.03 67 1013.6
20260903035017 28 132 3.2 9.7 0.00 0.03 0.03 66 1013.6
20260903034542 29 128 1.6 9.7 0.00 0.03 0.03 66 1013.5
20260903034020 29 129 3.2 9.7 0.00 0.03 0.03 66 1013.6
20260903033518 29 130 3.2 9.7 0.00 0.03 0.03 66 1013.6
20260903033039 29 114 3.2 11.3 0.00 0.03 0.03 65 1013.6
20260903032517 29 98 4.8 12.9 0.00 0.03 0.03 65 1013.5
20260903032017 29 127 3.2 19.3 0.00 0.03 0.03 64 1013.5
20260903031536 29 166 4.8 19.3 0.00 0.03 0.03 64 1013.5
20260903031019 30 96 3.2 16.1 0.00 0.03 0.03 64 1013.5
20260903030518 30 169 3.2 11.3 0.00 0.03 0.03 63 1013.6
20260903030038 30 104 4.8 11.3 0.00 0.03 0.03 63 1013.5
20260903025518 30 135 3.2 11.3 0.00 0.03 0.03 62 1013.5
20260903025017 30 108 3.2 17.7 0.00 0.03 0.03 62 1013.5
20260903024538 30 153 4.8 17.7 0.00 0.03 0.03 62 1013.5
20260903024020 30 136 6.4 16.1 0.00 0.03 0.03 61 1013.5
20260903023519 30 191 4.8 12.9 0.00 0.03 0.03 61 1013.4
20260903023041 30 129 1.6 11.3 0.00 0.03 0.03 60 1013.3
20260903022517 31 127 4.8 14.5 0.00 0.03 0.03 60 1013.3
20260903022020 31 110 4.8 16.1 0.00 0.03 0.03 60 1013.0
20260903021539 31 135 6.4 16.1 0.00 0.03 0.03 59 1012.9
20260903021018 31 173 3.2 9.7 0.00 0.03 0.03 59 1013.0
20260903020518 31 131 3.2 11.3 0.00 0.03 0.03 58 1012.9
20260903020035 31 135 3.2 11.3 0.00 0.03 0.03 58 1012.7
20260903015522 31 121 1.6 12.9 0.00 0.03 0.03 57 1012.7
20260903015018 32 164 3.2 12.9 0.00 0.03 0.03 56 1012.7
20260903014541 32 127 1.6 11.3 0.00 0.03 0.03 55 1012.5
20260903014017 32 121 1.6 6.4 0.00 0.03 0.03 54 1012.4
20260903013523 32 171 1.6 14.5 0.00 0.03 0.03 55 1012.3
20260903013045 32 117 3.2 14.5 0.00 0.03 0.03 54 1012.2
20260903012518 32 0 3.2 11.3 0.00 0.03 0.03 55 1012.1
20260903012019 32 116 3.2 9.7 0.00 0.03 0.03 55 1012.1
20260903011537 32 198 1.6 8.0 0.00 0.03 0.03 58 1012.1
20260903011019 32 134 1.6 8.0 0.00 0.03 0.03 56 1012.0
20260903010523 32 121 1.6 8.0 0.00 0.03 0.03 54 1012.0
20260903010040 32 150 1.6 8.0 0.00 0.03 0.03 54 1011.9
20260903005519 32 112 3.2 8.0 0.00 0.03 0.03 54 1011.8
20260903005019 33 0 0.0 11.3 0.00 0.03 0.03 54 1011.9
20260903004537 33 105 0.0 11.3 0.00 0.03 0.03 55 1011.9
20260903004017 33 131 1.6 9.7 0.00 0.03 0.03 55 1011.9
20260903003519 33 147 1.6 9.7 0.00 0.03 0.03 55 1012.0
20260903003037 33 120 1.6 9.7 0.00 0.03 0.03 56 1012.0
20260903002521 33 143 1.6 16.1 0.00 0.03 0.03 57 1011.9
20260903002020 33 112 3.2 16.1 0.03 0.03 0.03 57 1012.0
20260903001539 32 187 0.0 6.4 0.03 0.03 0.03 58 1011.9
20260903001018 32 0 0.0 6.4 0.03 0.03 0.03 59 1011.8
20260903000517 32 123 1.6 6.4 0.03 0.03 0.03 59 1011.8
20260903000038 32 123 1.6 6.4 0.03 0.03 0.03 60 1011.7
20260902235519 32 123 1.6 6.4 0.03 0.03 0.03 60 1011.9
20260902235022 32 138 1.6 6.4 0.03 0.03 0.03 63 1011.9
20260902234543 31 146 1.6 4.8 0.03 0.03 0.03 67 1011.9
20260902234017 31 110 1.6 4.8 0.03 0.03 0.03 70 1012.0
20260902233521 30 0 1.6 3.2 0.03 0.03 0.03 75 1012.0
20260902233037 30 0 0.0 1.6 0.03 0.03 0.03 74 1012.0
20260902232518 31 0 0.0 6.4 0.03 0.03 0.03 72 1011.9
20260902232018 33 0 1.6 17.7 0.00 0.00 0.00 64 1011.9
20260902231536 35 146 8.0 17.7 0.00 0.00 0.00 51 1012.0
20260902231020 35 135 6.4 16.1 0.00 0.00 0.00 46 1012.0
20260902230518 36 124 4.8 12.9 0.00 0.00 0.00 44 1011.9
20260902230036 37 91 3.2 12.9 0.00 0.00 0.00 43 1011.8
20260902225520 37 123 4.8 12.9 0.00 0.00 0.00 42 1011.9
20260902225019 37 64 3.2 12.9 0.00 0.00 0.00 41 1011.7
20260902224544 37 76 3.2 12.9 0.00 0.00 0.00 41 1011.5
20260902224019 37 110 4.8 11.3 0.00 0.00 0.00 40 1011.4
20260902223521 37 358 1.6 11.3 0.00 0.00 0.00 40 1011.5
20260902223036 38 108 3.2 11.3 0.00 0.00 0.00 39 1011.5
20260902222517 37 56 1.6 16.1 0.00 0.00 0.00 39 1011.5
20260902222023 38 94 4.8 16.1 0.00 0.00 0.00 38 1011.6
20260902221537 38 0 1.6 9.7 0.00 0.00 0.00 38 1011.6
20260902221020 38 56 1.6 14.5 0.00 0.00 0.00 37 1011.7
20260902220520 39 54 4.8 14.5 0.00 0.00 0.00 37 1011.7
20260902220040 38 53 4.8 8.0 0.00 0.00 0.00 37 1011.7
20260902215525 38 54 1.6 8.0 0.00 0.00 0.00 37 1011.7
20260902215019 39 53 3.2 9.7 0.00 0.00 0.00 37 1011.8
20260902214536 38 6 3.2 9.7 0.00 0.00 0.00 38 1011.8
20260902214017 38 82 3.2 12.9 0.00 0.00 0.00 39 1011.9
20260902213516 38 118 4.8 12.9 0.00 0.00 0.00 37 1012.0
20260902213036 38 153 3.2 9.7 0.00 0.00 0.00 38 1012.1
20260902212518 38 4 4.8 11.3 0.00 0.00 0.00 38 1012.0
20260902212020 38 0 1.6 11.3 0.00 0.00 0.00 39 1012.1
20260902211539 38 52 3.2 9.7 0.00 0.00 0.00 38 1012.2
20260902211020 38 89 3.2 16.1 0.00 0.00 0.00 39 1012.2
20260902210520 37 343 4.8 16.1 0.00 0.00 0.00 40 1012.3
20260902210035 38 110 3.2 12.9 0.00 0.00 0.00 39 1012.4
20260902205519 38 66 4.8 12.9 0.00 0.00 0.00 39 1012.6
20260902205017 38 131 3.2 8.0 0.00 0.00 0.00 40 1012.7
20260902204540 38 116 0.0 14.5 0.00 0.00 0.00 39 1012.7
20260902204018 38 0 3.2 14.5 0.00 0.00 0.00 39 1012.8
20260902203517 38 109 3.2 14.5 0.00 0.00 0.00 40 1012.8
20260902203038 37 98 3.2 14.5 0.00 0.00 0.00 41 1012.8
20260902202518 37 110 4.8 11.3 0.00 0.00 0.00 41 1012.9
20260902202020 37 93 1.6 6.4 0.00 0.00 0.00 42 1012.9
20260902201544 37 0 1.6 14.5 0.00 0.00 0.00 42 1013.0
20260902201020 37 62 3.2 19.3 0.00 0.00 0.00 41 1013.2
20260902200518 37 98 3.2 19.3 0.00 0.00 0.00 42 1013.2
20260902200051 36 42 3.2 12.9 0.00 0.00 0.00 43 1013.3
20260902195520 37 114 3.2 11.3 0.00 0.00 0.00 42 1013.4
20260902195019 37 78 3.2 11.3 0.00 0.00 0.00 42 1013.4
20260902194538 37 164 1.6 11.3 0.00 0.00 0.00 42 1013.5
20260902194018 36 91 1.6 9.7 0.00 0.00 0.00 42 1013.6
20260902193518 36 288 3.2 11.3 0.00 0.00 0.00 42 1013.6
20260902193037 36 0 3.2 11.3 0.00 0.00 0.00 43 1013.7
20260902192518 36 0 1.6 9.7 0.00 0.00 0.00 44 1013.8
20260902192019 36 25 3.2 9.7 0.00 0.00 0.00 45 1013.9
20260902191541 36 358 1.6 8.0 0.00 0.00 0.00 46 1014.0
20260902191020 36 97 1.6 9.7 0.00 0.00 0.00 46 1014.0
20260902190519 36 6 1.6 12.9 0.00 0.00 0.00 47 1014.1
20260902190057 36 54 4.8 12.9 0.00 0.00 0.00 48 1014.0
20260902185517 35 0 0.0 8.0 0.00 0.00 0.00 48 1014.1
20260902185019 35 0 3.2 8.0 0.00 0.00 0.00 48 1014.2
20260902184540 35 85 1.6 11.3 0.00 0.00 0.00 48 1014.2
20260902184018 35 0 4.8 11.3 0.00 0.00 0.00 48 1014.3
20260902183524 35 29 3.2 9.7 0.00 0.00 0.00 49 1014.4
20260902183037 35 0 0.0 9.7 0.00 0.00 0.00 48 1014.4
20260902182517 35 73 0.0 6.4 0.00 0.00 0.00 50 1014.6
20260902182024 35 0 0.0 6.4 0.00 0.00 0.00 49 1014.6
20260902181536 35 35 1.6 9.7 0.00 0.00 0.00 49 1014.9
20260902181022 35 90 1.6 12.9 0.00 0.00 0.00 48 1015.1
20260902180520 35 129 3.2 12.9 0.00 0.00 0.00 48 1015.2
20260902180037 35 102 3.2 11.3 0.00 0.00 0.00 49 1015.2
20260902175521 35 106 3.2 11.3 0.00 0.00 0.00 49 1015.3
20260902175020 34 0 1.6 8.0 0.00 0.00 0.00 52 1015.4
20260902174537 34 129 3.2 11.3 0.00 0.00 0.00 50 1015.5
20260902174018 34 156 3.2 11.3 0.00 0.00 0.00 49 1015.6
20260902173520 34 73 1.6 11.3 0.00 0.00 0.00 50 1015.6
20260902173040 35 0 3.2 14.5 0.00 0.00 0.00 49 1015.7
20260902172519 35 166 3.2 14.5 0.00 0.00 0.00 49 1015.8
20260902172025 34 0 0.0 6.4 0.00 0.00 0.00 52 1015.8
20260902171537 34 0 3.2 8.0 0.00 0.00 0.00 52 1015.8
20260902171023 34 123 1.6 8.0 0.00 0.00 0.00 53 1016.0
20260902170518 34 51 1.6 9.7 0.00 0.00 0.00 52 1016.0
20260902170041 33 43 1.6 9.7 0.00 0.00 0.00 55 1016.0
20260902165520 34 0 1.6 9.7 0.00 0.00 0.00 51 1016.1
20260902165020 34 131 1.6 9.7 0.00 0.00 0.00 53 1016.0
20260902164541 33 116 0.0 9.7 0.00 0.00 0.00 53 1015.9
20260902164019 33 133 0.0 9.7 0.00 0.00 0.00 55 1015.9
20260902163516 33 0 3.2 9.7 0.00 0.00 0.00 54 1016.1
20260902163035 33 0 0.0 6.4 0.00 0.00 0.00 54 1016.1
20260902162518 33 142 0.0 8.0 0.00 0.00 0.00 55 1016.1
20260902162020 33 62 3.2 8.0 0.00 0.00 0.00 57 1016.2
20260902161543 32 71 1.6 8.0 0.00 0.00 0.00 60 1016.2
20260902161018 32 173 1.6 9.7 0.00 0.00 0.00 58 1016.2
20260902160522 32 242 1.6 9.7 0.00 0.00 0.00 59 1016.2
20260902160037 32 0 0.0 9.7 0.00 0.00 0.00 60 1016.2
20260902155517 32 0 3.2 9.7 0.00 0.00 0.00 59 1016.2
20260902155020 32 83 1.6 6.4 0.00 0.00 0.00 60 1016.3
20260902154536 32 0 0.0 6.4 0.00 0.00 0.00 61 1016.3
20260902154017 31 0 1.6 8.0 0.00 0.00 0.00 62 1016.3
20260902153517 31 0 1.6 9.7 0.00 0.00 0.00 64 1016.3
20260902153038 31 0 1.6 9.7 0.00 0.00 0.00 65 1016.3
20260902152517 30 173 0.0 6.4 0.00 0.00 0.00 66 1016.2
20260902152020 30 195 0.0 9.7 0.00 0.00 0.00 66 1016.2
20260902151536 30 0 0.0 9.7 0.00 0.00 0.00 67 1016.2
20260902151018 30 81 0.0 6.4 0.00 0.00 0.00 68 1016.1
20260902150521 29 0 0.0 4.8 0.00 0.00 0.00 68 1016.2
20260902150037 29 116 0.0 4.8 0.00 0.00 0.00 69 1016.1
20260902145518 29 0 0.0 6.4 0.00 0.00 0.00 70 1016.0
20260902145023 29 73 1.6 6.4 0.00 0.00 0.00 70 1016.0
20260902144535 28 0 0.0 4.8 0.00 0.00 0.00 71 1016.0
20260902144019 28 0 0.0 4.8 0.00 0.00 0.00 71 1016.1
20260902143516 28 0 0.0 4.8 0.00 0.00 0.00 72 1016.1
20260902143041 28 0 0.0 8.0 0.00 0.00 0.00 73 1015.9
20260902142520 28 0 0.0 8.0 0.00 0.00 0.00 74 1016.0
20260902142020 28 0 0.0 6.4 0.00 0.00 0.00 74 1016.0
20260902141538 28 199 0.0 6.4 0.00 0.00 0.00 74 1016.1
20260902141022 27 0 1.6 6.4 0.00 0.00 0.00 74 1016.1
20260902140518 27 223 1.6 6.4 0.00 0.00 0.00 74 1016.0
20260902140041 28 0 0.0 4.8 0.00 0.00 0.00 74 1016.0
20260902135520 28 0 0.0 4.8 0.00 0.00 0.00 73 1016.0
20260902135019 28 0 0.0 4.8 0.00 0.00 0.00 73 1015.9
20260902134540 27 0 0.0 8.0 0.00 0.00 0.00 73 1015.9
20260902134018 27 205 0.0 8.0 0.00 0.00 0.00 73 1015.9
20260902133518 27 0 0.0 4.8 0.00 0.00 0.00 73 1015.9
20260902133035 27 136 0.0 6.4 0.00 0.00 0.00 73 1015.9
20260902132524 27 0 0.0 6.4 0.00 0.00 0.00 73 1015.9
20260902132018 27 132 0.0 4.8 0.00 0.00 0.00 72 1016.0
20260902131539 27 0 0.0 4.8 0.00 0.00 0.00 73 1015.9
20260902131020 27 0 0.0 8.0 0.00 0.00 0.00 73 1016.0
20260902130520 27 0 0.0 8.0 0.00 0.00 0.00 73 1015.9
20260902130041 27 198 0.0 4.8 0.00 0.00 0.00 73 1015.8
20260902125517 27 201 0.0 6.4 0.00 0.00 0.00 73 1015.7
20260902125019 27 160 0.0 6.4 0.00 0.00 0.00 74 1015.7
20260902124543 27 0 0.0 4.8 0.00 0.00 0.00 74 1015.6
20260902124017 26 0 0.0 3.2 0.00 0.00 0.00 75 1015.6
20260902123521 26 0 0.0 0.0 0.00 0.00 0.00 74 1015.5
20260902123040 26 0 0.0 1.6 0.00 0.00 0.00 74 1015.4
20260902122521 26 0 0.0 1.6 0.00 0.00 0.00 74 1015.4
20260902122020 26 0 0.0 3.2 0.00 0.00 0.00 74 1015.4
20260902121539 26 0 0.0 3.2 0.00 0.00 0.00 74 1015.4
20260902121019 26 0 0.0 0.0 0.00 0.00 0.00 74 1015.3
20260902120518 26 0 0.0 3.2 0.00 0.00 0.00 74 1015.3
20260902120035 26 0 0.0 3.2 0.00 0.00 0.00 74 1015.3
20260902115519 26 0 0.0 3.2 0.00 0.00 0.00 73 1015.3
20260902115019 26 0 0.0 3.2 0.00 0.00 0.00 73 1015.4
20260902114538 26 0 0.0 1.6 0.00 0.00 0.00 73 1015.5
20260902114017 26 0 0.0 1.6 0.00 0.00 0.00 73 1015.4
20260902113518 26 0 0.0 0.0 0.00 0.00 0.00 74 1015.5
20260902113037 26 0 0.0 0.0 0.00 0.00 0.00 74 1015.5
20260902112520 26 0 0.0 0.0 0.00 0.00 0.00 74 1015.5
20260902112020 26 0 0.0 0.0 0.00 0.00 0.00 74 1015.5
20260902111545 26 0 0.0 0.0 0.00 0.00 0.00 73 1015.4
20260902111023 26 0 0.0 0.0 0.00 0.00 0.00 73 1015.4
20260902110518 26 0 0.0 0.0 0.00 0.00 0.00 73 1015.5
20260902110037 26 0 0.0 0.0 0.00 0.00 0.00 72 1015.4
20260902105521 27 0 0.0 0.0 0.00 0.00 0.00 72 1015.4
20260902105019 27 0 0.0 0.0 0.00 0.00 0.00 71 1015.4
20260902104542 27 0 0.0 0.0 0.00 0.00 0.00 72 1015.4
20260902104020 27 0 0.0 0.0 0.00 0.00 0.00 71 1015.3
20260902103518 27 0 0.0 1.6 0.00 0.00 0.00 71 1015.4
20260902103039 27 0 0.0 1.6 0.00 0.00 0.00 71 1015.4
20260902102519 27 0 0.0 3.2 0.00 0.00 0.00 71 1015.4
20260902102020 27 0 0.0 3.2 0.00 0.00 0.00 71 1015.4
20260902101540 27 0 0.0 1.6 0.00 0.00 0.00 70 1015.4
20260902101017 27 0 0.0 4.8 0.00 0.00 0.00 70 1015.4
20260902100518 27 0 0.0 4.8 0.00 0.00 0.00 70 1015.4
20260902100035 27 0 0.0 0.0 0.00 0.00 0.00 70 1015.4
20260902095519 27 0 0.0 0.0 0.00 0.00 0.00 70 1015.3
20260902095019 27 0 0.0 1.6 0.00 0.00 0.00 69 1015.3
20260902094545 27 0 0.0 6.4 0.00 0.00 0.00 69 1015.4
20260902094018 27 0 0.0 6.4 0.00 0.00 0.00 69 1015.3
20260902093517 27 0 0.0 6.4 0.00 0.00 0.00 69 1015.2
20260902093037 27 214 0.0 6.4 0.00 0.00 0.00 69 1015.3
20260902092519 27 0 0.0 6.4 0.00 0.00 0.00 69 1015.2
20260902092023 27 204 0.0 4.8 0.00 0.00 0.00 69 1015.3
20260902091543 27 0 0.0 0.0 0.00 0.00 0.00 69 1015.2
20260902091018 27 0 0.0 6.4 0.00 0.00 0.00 68 1015.2
20260902090516 27 0 0.0 6.4 0.00 0.00 0.00 68 1015.2
20260902090035 27 197 0.0 0.0 0.00 0.00 0.00 68 1015.3
20260902085519 27 0 0.0 0.0 0.00 0.00 0.00 68 1015.1
20260902085018 28 0 0.0 1.6 0.00 0.00 0.00 67 1015.1
20260902084536 28 0 0.0 1.6 0.00 0.00 0.00 67 1015.0
20260902084020 28 0 0.0 1.6 0.00 0.00 0.00 66 1015.1
20260902083520 28 0 0.0 6.4 0.00 0.00 0.00 66 1015.1
20260902083036 28 0 0.0 8.0 0.00 0.00 0.00 65 1015.0
20260902082517 28 207 0.0 8.0 0.00 0.00 0.00 65 1015.0
20260902082019 28 0 1.6 8.0 0.00 0.00 0.00 65 1015.0
20260902081547 28 0 0.0 8.0 0.00 0.00 0.00 65 1015.0
20260902081018 28 0 1.6 8.0 0.00 0.00 0.00 65 1015.0
20260902080519 28 0 1.6 11.3 0.00 0.00 0.00 64 1015.0
20260902080036 28 187 1.6 11.3 0.00 0.00 0.00 64 1015.0
20260902075519 28 0 1.6 8.0 0.00 0.00 0.00 64 1015.0
20260902075017 28 0 3.2 8.0 0.00 0.00 0.00 64 1015.1
20260902074537 28 206 0.0 8.0 0.00 0.00 0.00 64 1015.1
20260902074019 29 0 0.0 8.0 0.00 0.00 0.00 63 1015.1
20260902073520 29 0 0.0 8.0 0.00 0.00 0.00 63 1015.1
20260902073036 29 171 1.6 14.5 0.00 0.00 0.00 63 1015.1
20260902072516 29 0 4.8 14.5 0.00 0.00 0.00 63 1015.1
20260902072018 29 209 1.6 11.3 0.00 0.00 0.00 63 1015.2
20260902071535 29 0 3.2 11.3 0.00 0.00 0.00 63 1015.1
20260902071018 29 0 0.0 8.0 0.00 0.00 0.00 63 1015.2
20260902070520 29 208 1.6 9.7 0.00 0.00 0.00 63 1015.2